333P/LINEAR (2024)

Japanese version
Home page
Updated on June 6, 2020

---------------------------------------------------------------------

* Profile

* Orbital Elements

Epoch 2024 Nov. 26.0 TT = JDT 2460640.5                                         
T 2024 Nov. 29.29931 TT                                 Rudenko                 
q   1.1129421            (2000.0)            P               Q                  
n   0.11366033     Peri.   26.01718     -0.12522101     +0.73230287             
a   4.2208195      Node   115.70573     +0.73014172     -0.38877199             
e   0.7363208      Incl.  132.02199     +0.67172373     +0.55909645             
P   8.67                                                                        
From 626 observations 2007 Nov. 4-2017 July 27, mean residual 0".4.             

* Finding Charts

* Magnitudes Graph

        H = 15.0  G = 0.15               [   ,-55]  (             - 2024 Oct.  5)
        m1 = 6.5 + 5 log d + 80   log r  [-55,-20]  (2024 Oct.  5 - 2024 Nov.  9)
        m1 = 9.5 + 5 log d + 30.0 log r  [-20,108]  (2024 Nov.  9 - 2025 Mar. 17)
        H = 15.0  G = 0.15               [108,   ]  (2025 Mar. 17 -             )

---------------------------------------------------------------------

The orbital elements are published on M.P.E.C. 2020-L06.
The charts are made with StellaNavigator Ver.10 (AstroArts).
The magnitudes graphs are made with Comet for Windows.

---------------------------------------------------------------------

Copyright(C) Seiichi Yoshida (comet@aerith.net). All rights reserved.